Johnson County (6A4)
Johnson County, TN
Field Elevation: 2240
Lat: 36°25.07N  Long: 81°49.51W
CTAF/Unicom Freq: 122.7000
   
    
Weather Advisories
1/29/2015 16:18 Z
Altimeter 30.14" Hg
Wind 270° @ 3 KT
Gusts --
Visibility 10 SM
Ceiling BKN150
Temperature 2° C (36° F)
Dewpoint -4° C (25° F)
Relative Humidity 65%
Density Altitude --
Condensation Altitude 5,300 feet
Wind Chill 0° C (32° F)
  Wind and Runways
Indicated Runway = 24
History
 
 
More Info
All DigiWx sites map
 
Johnson County Airport FBO
 
Airport IQ 5010
(M01) General Dewitt Spain Airport
(3M3) Collegedale Muni
 
about DigiWx
 
FAA Disclaimer: The data displayed is for advisory purposes only and is not to be used for flight planning or operations. For official data, please call (not available) to hear the current automated AWOS voice message.
  METAR 6A4 291618Z AUTO 27003KT 10SM BKN150 02/M04 A3014